Temperature
19 18 18 18 21 22 23 23 23 23 24 23 23 23 24 23 23 22 18 18 18 18 17 18 18 18 18 18 18 18 18 18 18 18 18 18 18 18 18 18 18 18 18 18 18 18 18 18 18
18 18 18 20 22 23 23 23 24 24 23 22 23 23 23 22 20 19 18 18 18 17 17 17 18 18 18 18 18 18 18 18 18 18 18 17 17 17 17 17 17 17 18 18 18 18 18 18 18
18 18 19 22 23 23 23 24 24 23 22 23 23 22 23 21 20 19 18 18 18 17 17 17 18 18 17 17 17 17 17 17 17 17 17 17 17 17 17 17 17 17 17 17 17 18 18 18 18
18 19 20 23 23 23 24 24 23 23 23 23 23 23 21 20 19 19 18 18 18 17 17 17 17 17 17 17 17 17 17 17 17 17 17 17 17 17 17 17 17 17 17 17 17 17 17 17 17
18 20 22 23 23 23 24 24 23 24 24 23 23 23 21 19 19 18 18 18 18 18 17 17 17 17 17 17 17 17 17 17 17 16 16 16 16 16 16 16 16 16 17 17 17 17 17 17 17
20 22 23 23 23 23 24 23 24 24 24 23 23 23 21 19 19 18 18 18 18 17 17 17 17 17 17 17 17 16 16 16 16 16 16 16 16 16 16 16 16 16 16 16 16 16 17 17 17
21 22 23 24 23 24 24 23 24 24 24 23 23 23 21 19 19 18 18 18 18 17 17 17 17 16 17 16 16 16 16 16 16 16 16 16 16 16 16 16 16 16 16 16 16 16 16 16 17
20 23 23 24 23 23 23 23 23 24 24 22 23 24 22 20 18 18 18 18 17 17 17 17 17 16 16 16 16 16 16 16 16 15 15 15 15 15 15 15 15 15 15 15 16 16 16 16 16
19 23 23 23 23 23 23 24 23 23 23 22 22 22 21 20 19 18 18 18 18 17 17 17 17 16 16 16 16 16 16 16 15 15 15 15 15 15 15 15 15 15 15 15 15 15 16 16 16
21 23 23 23 24 24 23 23 23 23 24 23 22 21 20 19 19 19 19 19 18 18 18 18 17 17 16 16 16 16 15 15 15 15 15 15 15 14 15 14 15 15 15 15 15 15 15 16 16
22 23 23 23 22 23 23 23 23 24 24 24 23 22 20 20 20 20 20 20 19 19 18 18 17 17 17 16 16 16 15 15 15 15 15 15 15 15 15 14 15 14 14 15 15 15 15 15 15
22 22 22 22 22 22 23 23 23 24 24 24 23 22 21 20 20 20 20 20 19 19 18 18 18 17 17 17 16 16 16 15 15 15 15 15 15 14 14 14 14 14 14 14 14 14 15 15 15
22 22 22 22 22 22 23 23 23 23 23 23 22 21 21 21 21 21 20 20 19 19 18 18 18 18 17 17 16 16 16 15 15 15 15 14 14 14 14 14 14 14 14 14 14 14 15 14 15
22 22 22 22 23 22 23 24 24 24 23 23 22 22 22 21 21 21 20 20 20 19 19 18 18 17 17 17 16 16 16 15 15 15 15 14 14 14 14 14 14 14 14 14 14 14 14 14 15
21 23 23 23 23 23 23 25 25 24 23 23 23 22 22 21 21 21 21 21 20 20 19 18 18 17 17 17 16 16 16 15 15 15 15 14 14 14 14 14 14 14 13 14 14 14 14 14 14
23 23 23 24 24 23 24 24 25 23 23 24 23 23 22 22 21 21 21 21 20 20 19 19 18 18 17 17 16 16 16 15 15 14 14 14 14 13 13 13 13 13 13 13 13 14 14 14 14
23 23 23 24 24 24 25 25 25 24 24 24 24 24 23 22 22 22 21 21 20 20 19 19 18 18 17 17 17 16 16 15 15 14 14 14 13 13 13 13 13 13 13 13 13 13 14 14 14
23 24 24 24 24 24 25 25 25 24 24 24 24 24 24 23 23 22 21 21 20 20 20 19 19 18 18 17 16 16 15 15 15 14 14 14 13 13 13 13 13 13 13 13 13 13 13 13 14
24 24 24 24 24 24 25 25 26 25 24 25 25 24 24 24 23 22 21 21 20 20 20 19 19 19 18 17 17 16 16 15 15 14 14 14 13 13 13 13 13 13 13 13 13 13 13 14 14
24 24 24 24 24 25 25 25 26 25 24 24 24 25 24 24 23 22 21 21 21 20 20 20 19 19 18 18 17 16 16 15 15 14 14 14 13 13 13 13 13 13 13 13 13 13 13 13 13
24 24 24 24 24 25 25 26 26 26 25 24 23 24 24 23 23 23 21 21 21 21 20 20 19 19 18 18 17 17 16 15 15 14 14 14 13 13 13 13 13 13 13 13 13 13 13 13 13
23 24 24 24 25 25 25 25 26 26 26 25 24 24 23 22 22 22 21 21 21 21 20 20 19 19 19 18 17 17 16 16 15 14 14 14 13 13 13 13 13 13 13 13 13 13 13 13 13
24 23 24 24 25 26 26 26 26 26 26 25 25 24 23 22 22 21 21 21 21 20 20 20 19 19 19 18 17 17 16 15 15 15 14 14 14 13 13 13 13 13 13 12 12 12 13 13 13
23 24 24 25 26 25 25 26 25 25 25 25 25 24 23 22 21 21 21 21 21 21 21 20 20 19 19 18 18 17 16 16 15 15 14 14 14 13 13 13 13 13 13 13 12 12 13 13 13
24 25 25 25 25 24 24 25 24 24 24 24 23 23 22 21 21 21 21 21 21 21 21 20 20 19 19 18 17 17 16 16 15 15 15 14 14 14 13 13 13 13 13 13 13 12 13 13 13
25 25 25 24 24 24 25 25 24 24 23 22 22 22 21 21 21 20 20 21 21 21 21 20 20 19 19 18 18 17 16 16 15 15 15 14 14 14 13 13 13 13 13 13 13 13 13 13 13
25 25 25 25 25 25 25 25 24 24 24 23 22 22 21 20 20 19 20 20 20 20 20 20 20 19 19 18 18 17 17 16 16 15 15 15 14 14 14 13 13 13 13 13 13 13 13 12 13
25 25 25 25 24 24 24 24 24 23 23 23 22 21 20 19 19 19 19 19 19 20 20 20 20 19 19 18 18 17 17 16 16 15 15 15 15 14 14 14 13 13 13 13 13 13 13 13 13
24 24 25 25 25 24 24 24 23 22 22 22 21 20 19 19 18 18 18 19 19 19 19 19 19 19 18 18 17 17 17 16 16 16 15 15 15 14 14 14 14 14 13 13 13 13 13 13 13
25 25 25 25 24 24 24 23 22 22 21 21 20 19 18 18 18 18 18 18 18 18 18 18 18 18 18 18 17 17 17 16 16 16 15 15 15 14 14 14 14 14 14 13 13 13 13 13 13
Wind_Speed
7 6 3 2 3 2 2 2 2 3 2 3 3 3 4 5 4 4 5 6 7 8 9 9 8 7 7 7 6 6 6 6 5 5 5 4 4 4 4 3 3 3 3 3 3 3 3 3 3
6 4 2 3 2 3 3 3 4 4 4 3 3 3 4 6 5 6 6 7 8 8 8 8 9 7 7 7 7 6 6 6 5 5 4 4 4 4 4 4 4 4 4 4 4 4 4 3 3
6 2 2 2 1 3 4 4 4 5 3 1 3 4 4 5 5 5 7 9 9 8 8 9 8 8 8 7 7 6 6 6 6 5 4 4 4 4 4 4 4 4 4 4 4 4 4 4 4
2 2 2 2 4 3 3 4 4 5 3 2 3 5 5 5 4 7 10 10 10 9 9 10 7 8 8 7 7 7 6 6 6 5 5 4 4 4 4 5 5 5 5 5 5 4 5 5 5
1 2 2 3 4 4 3 4 4 4 3 3 3 5 6 5 8 10 10 9 9 9 8 9 8 7 7 7 7 7 6 6 6 5 5 5 5 5 5 5 5 5 6 5 5 5 5 5 6
2 2 2 4 5 4 4 3 3 3 4 4 4 5 6 8 9 10 10 9 8 8 8 9 9 7 7 6 6 6 6 6 6 5 5 5 5 5 5 5 5 5 5 5 5 5 5 5 6
2 1 2 4 4 4 3 2 3 3 4 4 3 5 7 9 10 10 9 8 7 7 6 6 7 8 7 6 6 5 6 6 6 6 6 6 5 5 5 5 6 6 6 6 6 5 6 6 6
1 1 3 3 4 4 3 2 2 1 3 4 2 3 6 11 11 10 9 8 7 6 5 5 4 4 4 5 6 5 5 5 5 6 6 4 2 1 2 3 5 6 6 6 6 6 6 6 6
2 2 3 2 3 4 3 2 2 1 3 4 2 3 8 14 13 11 9 8 7 5 4 4 4 3 2 2 4 3 4 3 1 2 3 3 4 5 3 7 7 6 6 6 6 5 6 7 6
3 2 2 1 1 2 2 1 2 3 4 4 5 7 11 14 13 12 10 9 8 6 5 4 3 3 2 1 1 0 1 2 3 4 4 4 5 5 5 2 2 4 4 3 2 4 6 9 6
2 1 2 2 2 1 1 1 1 2 2 3 5 11 14 14 13 11 9 7 6 6 5 4 3 3 1 1 0 1 1 1 2 4 4 4 5 4 4 4 2 3 5 5 3 6 5 5 5
2 2 1 2 2 1 0 1 1 2 1 2 5 11 14 14 12 10 9 7 6 5 4 4 3 2 2 1 0 1 1 2 3 3 5 5 4 4 5 4 5 5 5 5 6 5 6 6 6
3 3 2 1 1 1 1 1 1 2 1 3 7 11 13 12 11 10 8 7 7 6 5 4 4 2 1 1 1 1 1 2 2 3 4 5 4 5 5 5 5 6 6 5 5 6 6 6 6
3 2 2 1 1 1 2 2 2 1 4 7 9 10 11 11 11 10 9 8 8 7 6 5 5 3 2 2 2 1 1 1 3 3 4 4 4 5 5 5 5 6 6 6 6 6 6 6 5
3 3 3 2 1 1 2 3 3 3 5 7 8 9 9 10 10 10 9 8 8 7 6 6 5 4 3 2 1 1 1 2 2 3 4 4 4 5 5 6 6 6 6 6 6 6 6 5 5
4 3 3 3 2 2 3 4 5 4 5 6 7 8 9 9 10 10 9 8 8 7 7 6 5 5 4 2 2 1 1 1 2 2 3 4 4 5 5 5 6 6 6 6 5 5 5 5 4
5 5 4 4 2 1 2 2 4 2 3 5 6 7 8 9 10 9 9 9 8 8 7 7 6 5 4 3 2 1 1 1 1 2 3 3 4 5 5 5 5 6 5 5 6 5 5 5 4
7 6 5 4 2 1 2 0 1 1 3 3 4 5 6 7 8 8 8 9 8 8 8 7 7 6 5 4 3 2 1 1 1 1 2 3 4 5 5 4 5 6 5 5 5 6 5 4 4
5 5 6 4 2 1 0 1 3 3 3 2 3 3 3 4 5 5 6 8 8 9 9 9 8 8 6 4 3 2 2 2 1 1 2 2 3 4 5 5 5 5 5 6 6 5 5 4 4
5 6 6 5 2 1 2 4 5 5 3 2 1 1 1 2 3 3 5 7 9 10 10 9 9 8 7 4 3 2 1 2 1 2 2 2 3 4 5 5 5 5 4 5 6 5 4 4 3
5 4 4 3 3 2 3 7 7 7 6 5 3 2 2 1 2 2 3 6 8 9 10 9 9 9 8 6 4 3 2 2 2 2 2 2 3 3 4 5 5 5 5 5 5 5 5 5 3
5 2 2 2 3 3 1 7 8 7 8 8 6 5 4 3 2 2 1 3 6 7 8 9 9 9 8 7 6 5 3 2 2 2 2 2 2 3 3 4 4 4 4 4 5 5 5 5 4
4 2 2 2 4 5 3 5 7 7 8 8 8 7 6 5 4 3 1 1 2 4 6 7 8 8 8 8 6 6 4 3 2 2 2 3 2 2 3 3 4 4 4 4 5 5 5 4 4
5 5 4 4 5 5 3 3 6 5 6 7 8 8 8 7 6 5 3 2 2 3 4 6 7 8 8 8 8 7 5 4 4 4 3 3 2 2 2 3 3 3 3 4 4 4 4 4 4
5 5 5 6 5 5 2 2 6 7 6 6 7 8 8 8 7 6 5 3 2 3 4 5 7 7 8 8 8 8 7 6 6 5 4 4 3 3 2 3 3 3 3 3 4 3 3 3 3
4 3 2 4 5 6 3 5 6 6 6 6 7 8 9 10 9 8 6 4 2 2 3 4 6 7 7 8 8 8 8 6 5 5 5 5 4 3 3 3 4 3 3 3 3 3 3 3 3
4 2 2 2 4 5 5 6 6 6 7 8 9 10 11 11 10 9 7 5 3 1 2 3 4 5 6 8 8 8 8 7 7 7 6 5 5 4 4 4 4 4 3 4 3 3 3 3 3
2 3 3 3 4 4 5 5 3 4 6 8 10 11 10 10 11 10 9 7 5 3 1 1 3 4 5 6 7 6 8 8 7 7 7 6 6 5 5 5 5 4 4 4 4 3 3 3 2
4 3 1 1 1 2 5 4 4 3 4 6 8 9 9 10 10 10 9 8 7 5 3 2 1 3 4 5 6 7 7 7 8 8 8 7 7 7 7 6 6 5 5 4 4 4 4 4 3
2 2 4 3 2 1 2 3 5 4 4 5 7 8 9 10 10 10 10 9 9 8 6 4 3 2 3 4 5 6 6 7 8 8 9 9 8 8 8 7 7 6 6 6 5 5 5 4 4
Wind_Direction
166 156 173 219 214 178 111 101 118 120 94 68 56 55 54 39 17 61 102 124 123 129 128 130 122 119 114 111 110 106 99 91 85 77 68 61 56 50 39 27 13 4 359 354 348 350 354 360 357
159 160 202 229 216 133 113 131 123 97 101 105 76 62 69 66 60 93 116 121 125 124 124 113 114 112 107 103 101 95 87 80 74 67 59 49 40 30 19 6 353 347 338 329 323 325 325 331 338
146 177 242 228 151 112 112 115 108 107 120 118 86 60 56 76 93 102 115 127 124 117 113 107 108 104 101 96 91 87 81 73 66 60 51 40 24 9 2 353 340 335 327 316 312 314 313 314 321
170 203 229 206 115 96 101 117 125 134 135 123 112 93 82 76 93 112 124 128 121 117 113 109 106 101 98 94 89 83 76 69 61 51 40 28 15 2 356 349 337 330 322 314 312 309 302 303 309
237 250 198 146 112 106 113 127 145 143 126 121 111 99 97 95 108 121 127 127 123 120 116 112 104 101 97 92 86 80 74 67 59 48 35 24 14 3 354 341 329 324 322 318 316 316 309 305 308
221 236 186 142 123 117 124 143 164 141 126 132 123 110 103 123 129 129 129 128 123 120 118 115 113 100 94 88 83 76 67 62 55 45 31 21 13 4 356 348 338 329 321 315 313 309 304 300 298
260 224 159 137 136 132 118 147 166 144 132 124 128 114 126 141 137 137 134 130 126 125 121 119 122 123 115 95 79 72 65 55 46 37 31 26 22 13 5 351 344 333 324 317 311 306 304 300 297
283 239 160 152 146 117 109 141 122 118 108 120 152 121 142 151 146 143 139 140 141 139 134 125 120 113 112 112 97 76 65 53 47 41 32 14 355 23 356 328 11 345 335 328 323 313 305 299 291
242 217 163 146 143 114 122 144 121 133 141 145 134 87 126 144 150 153 154 156 156 152 148 143 136 124 112 95 102 112 100 71 47 80 66 314 342 353 325 25 12 356 346 338 334 324 306 288 251
217 189 118 87 92 114 133 137 137 173 168 159 142 128 137 151 162 167 169 167 166 165 163 160 162 154 151 124 113 89 53 43 8 9 8 354 359 350 337 59 8 353 336 300 328 305 272 266 265
197 133 104 122 122 136 142 157 203 211 171 162 155 152 156 165 172 176 175 170 167 166 167 171 173 176 181 177 280 359 2 2 355 4 356 343 341 338 341 336 332 325 307 317 315 281 295 298 293
158 117 106 109 127 161 178 191 225 235 351 104 143 154 162 173 178 182 180 176 176 182 180 179 188 186 191 223 272 277 315 340 353 356 349 347 347 336 351 337 342 328 327 328 314 306 303 301 291
167 124 121 130 177 237 232 237 264 251 226 156 150 160 171 178 182 185 186 184 190 192 195 193 201 209 195 185 255 265 318 332 359 354 340 347 342 343 348 340 340 327 327 318 314 306 311 301 295
142 138 128 157 184 209 223 219 211 153 142 150 160 169 177 181 188 188 193 197 200 201 197 189 201 205 216 220 234 275 314 312 332 345 345 346 344 342 339 337 340 337 332 327 314 312 307 296 293
153 159 151 141 177 191 226 175 151 132 156 161 170 175 181 188 195 201 200 204 205 203 200 192 198 204 214 234 250 266 278 313 332 346 342 349 348 342 341 340 341 344 335 327 321 318 307 297 289
172 180 164 126 155 186 230 119 111 130 168 176 179 180 191 199 206 209 210 212 210 208 203 191 196 201 201 207 226 241 266 313 331 340 339 345 350 347 345 341 343 342 334 332 328 323 315 304 296
175 170 154 133 126 186 229 119 111 138 197 199 193 192 199 205 213 214 217 219 214 211 205 196 197 200 190 182 193 219 238 279 320 333 344 341 347 344 344 344 341 341 338 337 333 338 324 317 310
162 159 146 134 119 205 221 280 64 113 199 202 191 199 202 211 215 218 218 220 216 212 206 198 192 194 177 174 186 186 224 243 290 329 344 338 336 341 340 336 341 342 340 341 340 337 327 317 310
140 143 134 111 83 231 178 74 83 92 116 134 162 191 209 221 221 219 218 212 208 206 203 195 193 184 178 175 192 211 225 241 263 302 336 322 325 332 336 330 340 341 346 343 341 339 328 326 323
147 141 131 114 77 75 88 90 83 75 74 77 87 141 213 237 228 207 209 205 206 204 201 197 194 187 187 184 187 201 235 257 277 272 274 301 319 327 328 332 334 343 341 344 349 346 331 334 331
134 133 117 109 126 127 118 108 94 86 85 78 64 43 25 311 282 246 212 209 205 205 201 198 194 188 189 181 172 171 192 232 234 250 266 289 306 316 322 330 334 340 341 354 349 344 339 330 334
128 95 128 150 168 116 94 114 92 88 86 70 60 51 34 6 333 318 252 213 207 206 202 200 194 192 187 183 193 202 230 264 282 284 277 269 278 301 311 321 328 334 342 346 345 354 337 327 329
108 114 136 154 145 136 103 126 104 92 77 59 51 46 37 26 15 2 348 258 205 195 195 197 192 192 189 194 198 215 237 259 268 265 261 272 276 284 294 309 318 330 335 344 344 344 342 338 335
146 154 145 169 177 138 76 128 106 74 45 38 38 38 36 33 33 33 39 64 112 156 180 189 192 193 193 199 206 220 234 243 252 256 264 266 269 274 276 287 303 317 332 335 336 333 341 343 342
199 198 171 167 164 125 88 113 92 57 34 25 23 30 34 36 36 39 43 58 91 145 173 186 192 196 199 206 215 222 232 241 246 256 256 267 276 274 283 277 288 310 320 320 320 319 329 335 335
187 236 209 164 153 136 148 123 92 58 46 43 44 42 41 40 35 34 32 39 66 134 172 189 198 204 204 212 220 225 228 236 247 247 261 264 275 281 281 277 283 292 302 303 304 305 316 322 324
170 166 2 116 132 151 133 124 113 78 64 54 49 45 39 34 32 31 29 30 39 82 171 197 205 212 213 220 224 228 230 232 241 245 250 258 263 268 268 266 268 273 279 288 293 298 303 305 310
22 135 188 195 171 163 151 153 134 70 45 42 41 38 34 31 33 33 32 30 30 32 35 205 226 230 226 228 229 232 235 234 240 246 247 252 257 258 259 259 261 261 261 264 271 279 298 291 295
157 164 162 140 240 206 170 133 58 56 44 40 39 36 32 31 31 31 32 33 34 38 39 27 283 258 247 241 238 234 235 239 241 241 246 250 253 248 250 252 257 260 257 253 250 264 270 283 287
235 205 214 217 173 230 213 122 87 84 65 52 47 45 41 37 36 37 36 36 36 33 29 22 358 316 280 262 253 248 246 243 245 244 245 247 249 250 251 251 252 253 252 252 254 253 258 268 276
Height
1514 1514 1516 1518 1518 1516 1516 1515 1512 1513 1514 1516 1516 1515 1515 1517 1520 1527 1527 1526 1527 1529 1530 1530 1531 1532 1533 1534 1534 1535 1535 1535 1535 1535 1536 1536 1536 1535 1535 1535 1535 1535 1535 1534 1534 1534 1533 1533 1532
1513 1515 1517 1518 1514 1517 1519 1513 1513 1514 1516 1517 1518 1518 1518 1520 1524 1526 1526 1527 1529 1530 1531 1532 1532 1533 1533 1534 1534 1535 1535 1535 1535 1535 1535 1535 1535 1535 1535 1535 1535 1534 1534 1534 1533 1533 1533 1532 1532
1512 1514 1517 1514 1513 1516 1517 1513 1513 1515 1518 1518 1518 1520 1520 1524 1526 1527 1528 1528 1530 1531 1532 1532 1533 1534 1534 1534 1535 1535 1535 1535 1535 1535 1535 1535 1535 1534 1534 1534 1534 1533 1533 1533 1533 1532 1532 1532 1531
1513 1516 1516 1513 1514 1513 1512 1513 1514 1516 1518 1519 1519 1521 1523 1526 1527 1528 1529 1530 1532 1533 1534 1534 1534 1534 1535 1535 1535 1535 1535 1535 1535 1535 1534 1534 1534 1533 1533 1533 1533 1532 1532 1532 1531 1531 1531 1531 1530
1514 1515 1513 1513 1513 1512 1512 1514 1515 1515 1516 1518 1519 1521 1525 1528 1528 1529 1530 1532 1533 1534 1535 1535 1535 1535 1536 1536 1536 1536 1535 1535 1535 1534 1534 1533 1533 1532 1532 1532 1531 1531 1531 1530 1530 1530 1529 1529 1529
1517 1514 1513 1515 1513 1512 1513 1515 1516 1516 1517 1519 1520 1522 1526 1529 1529 1531 1532 1533 1535 1536 1537 1536 1536 1536 1536 1536 1536 1536 1536 1535 1534 1534 1534 1533 1532 1532 1531 1530 1530 1529 1529 1529 1528 1528 1528 1527 1527
1516 1512 1512 1512 1514 1513 1514 1516 1515 1516 1517 1520 1521 1522 1527 1529 1531 1532 1533 1534 1535 1537 1537 1538 1539 1538 1537 1537 1537 1536 1536 1535 1535 1534 1533 1533 1532 1531 1530 1530 1529 1528 1528 1527 1527 1526 1526 1526 1526
1515 1513 1512 1512 1513 1514 1515 1516 1517 1517 1519 1522 1523 1522 1526 1530 1531 1532 1534 1535 1536 1538 1538 1539 1539 1540 1540 1539 1538 1537 1536 1536 1535 1534 1533 1532 1532 1531 1530 1529 1528 1527 1526 1526 1525 1525 1524 1524 1523
1515 1514 1513 1513 1514 1514 1516 1516 1518 1519 1520 1522 1523 1524 1526 1529 1531 1533 1535 1536 1537 1538 1539 1540 1540 1540 1540 1540 1539 1538 1537 1536 1536 1535 1533 1533 1533 1532 1531 1529 1527 1526 1525 1524 1524 1523 1522 1522 1522
1515 1513 1513 1513 1513 1514 1516 1517 1518 1519 1519 1521 1523 1525 1527 1529 1531 1534 1535 1537 1538 1539 1540 1540 1540 1540 1540 1540 1540 1539 1539 1537 1537 1536 1534 1534 1533 1531 1530 1528 1526 1525 1524 1523 1522 1522 1521 1521 1522
1513 1512 1513 1514 1515 1516 1516 1517 1518 1517 1517 1519 1521 1525 1527 1529 1532 1534 1536 1537 1539 1540 1540 1540 1541 1541 1541 1541 1540 1540 1539 1537 1537 1536 1534 1533 1532 1531 1530 1529 1527 1526 1524 1524 1522 1522 1521 1521 1520
1513 1514 1514 1515 1517 1517 1516 1516 1517 1518 1519 1520 1522 1524 1527 1529 1532 1534 1535 1537 1538 1539 1540 1540 1541 1541 1541 1541 1540 1539 1539 1538 1537 1536 1535 1534 1532 1531 1530 1528 1527 1525 1524 1522 1521 1520 1520 1519 1519
1513 1514 1516 1516 1517 1517 1517 1517 1517 1517 1519 1520 1522 1524 1527 1529 1531 1533 1535 1537 1538 1539 1539 1540 1540 1541 1541 1540 1539 1539 1538 1538 1537 1535 1534 1533 1532 1531 1529 1528 1526 1525 1523 1522 1520 1519 1519 1517 1517
1514 1515 1516 1516 1516 1517 1516 1516 1517 1517 1519 1520 1522 1524 1526 1528 1531 1533 1534 1536 1537 1538 1539 1539 1539 1540 1540 1540 1539 1539 1538 1537 1537 1535 1534 1533 1531 1530 1529 1528 1525 1524 1522 1520 1519 1518 1517 1516 1515
1514 1514 1514 1515 1516 1516 1516 1514 1515 1517 1518 1520 1522 1524 1526 1528 1530 1532 1533 1535 1536 1538 1538 1539 1539 1539 1539 1539 1539 1538 1537 1537 1536 1535 1534 1532 1531 1530 1528 1527 1525 1523 1521 1519 1518 1517 1515 1515 1514
1513 1513 1515 1515 1515 1516 1517 1517 1514 1517 1518 1519 1521 1523 1525 1527 1529 1530 1532 1534 1535 1536 1537 1538 1538 1538 1538 1538 1537 1538 1537 1536 1536 1534 1533 1532 1531 1529 1528 1526 1525 1522 1520 1519 1517 1516 1515 1514 1513
1512 1515 1516 1515 1514 1514 1514 1514 1514 1516 1517 1518 1519 1521 1523 1525 1527 1529 1530 1532 1533 1534 1536 1536 1537 1537 1537 1537 1536 1536 1536 1535 1535 1534 1533 1531 1530 1529 1528 1525 1524 1522 1520 1518 1517 1515 1514 1513 1512
1515 1513 1515 1514 1513 1513 1512 1512 1512 1515 1516 1516 1518 1519 1521 1523 1525 1527 1528 1530 1531 1532 1534 1535 1535 1536 1536 1536 1536 1536 1535 1535 1534 1533 1532 1530 1529 1528 1527 1525 1524 1522 1520 1518 1516 1515 1513 1512 1511
1510 1511 1513 1513 1512 1513 1512 1511 1511 1513 1515 1515 1517 1518 1520 1522 1524 1525 1526 1527 1528 1530 1532 1533 1534 1535 1535 1535 1535 1535 1535 1535 1534 1533 1531 1530 1529 1528 1526 1525 1523 1521 1520 1518 1516 1515 1514 1512 1511
1510 1512 1512 1513 1513 1512 1511 1510 1510 1513 1515 1516 1517 1517 1519 1520 1522 1523 1523 1524 1526 1528 1530 1531 1532 1533 1534 1535 1535 1534 1534 1534 1533 1532 1530 1529 1528 1527 1526 1525 1523 1521 1519 1517 1516 1514 1513 1512 1511
1511 1511 1513 1514 1513 1511 1511 1513 1511 1513 1515 1517 1518 1518 1518 1519 1520 1521 1521 1522 1524 1526 1527 1529 1531 1532 1533 1533 1534 1533 1533 1533 1533 1532 1530 1529 1528 1526 1525 1524 1523 1521 1520 1518 1516 1514 1513 1512 1511
1514 1512 1513 1513 1512 1515 1512 1522 1514 1512 1513 1516 1517 1518 1519 1519 1519 1520 1520 1521 1522 1523 1525 1527 1529 1530 1532 1532 1533 1533 1533 1533 1533 1531 1530 1529 1527 1526 1524 1523 1522 1521 1520 1518 1517 1515 1513 1512 1511
1512 1513 1512 1512 1510 1512 1512 1514 1517 1512 1515 1516 1518 1519 1519 1519 1519 1519 1519 1520 1520 1522 1523 1525 1527 1529 1530 1531 1532 1532 1532 1532 1531 1530 1529 1528 1527 1526 1524 1523 1522 1521 1519 1518 1516 1514 1513 1512 1511
1513 1513 1513 1510 1508 1521 1519 1517 1524 1518 1519 1519 1519 1520 1520 1520 1519 1519 1519 1519 1519 1520 1522 1523 1525 1527 1528 1529 1530 1530 1531 1530 1530 1529 1529 1528 1527 1526 1524 1523 1522 1521 1519 1518 1516 1514 1513 1512 1510
1512 1512 1519 1521 1522 1524 1519 1519 1526 1522 1522 1522 1522 1522 1521 1521 1520 1519 1519 1519 1519 1520 1521 1522 1523 1525 1526 1527 1528 1529 1529 1529 1529 1529 1528 1527 1527 1526 1524 1523 1522 1521 1519 1517 1516 1515 1513 1512 1511
1509 1508 1517 1526 1527 1523 1519 1521 1523 1523 1524 1524 1524 1523 1522 1521 1520 1519 1519 1519 1519 1519 1520 1521 1522 1523 1524 1525 1526 1526 1527 1527 1527 1527 1526 1526 1525 1525 1523 1522 1521 1520 1518 1517 1516 1515 1513 1512 1511
1508 1508 1507 1510 1516 1520 1520 1521 1521 1522 1523 1524 1524 1524 1523 1523 1521 1520 1519 1519 1519 1519 1520 1520 1521 1522 1522 1523 1524 1524 1525 1524 1525 1525 1524 1524 1524 1522 1522 1520 1520 1519 1517 1516 1515 1514 1513 1512 1511
1507 1507 1509 1512 1524 1529 1527 1524 1524 1523 1525 1525 1525 1526 1526 1524 1523 1521 1520 1519 1519 1519 1519 1519 1520 1520 1520 1521 1521 1521 1522 1522 1522 1522 1522 1522 1522 1520 1520 1519 1519 1518 1516 1515 1514 1514 1512 1511 1510
1511 1511 1510 1512 1514 1523 1531 1530 1524 1526 1527 1527 1528 1528 1527 1526 1524 1522 1521 1520 1519 1518 1518 1518 1518 1518 1518 1518 1519 1519 1519 1519 1519 1519 1519 1519 1519 1518 1518 1517 1517 1516 1515 1514 1513 1512 1511 1510 1510
1506 1506 1508 1514 1519 1517 1521 1530 1526 1528 1529 1530 1530 1530 1529 1527 1526 1524 1522 1521 1519 1518 1518 1517 1517 1517 1517 1516 1516 1516 1516 1516 1516 1516 1516 1517 1517 1516 1516 1515 1515 1514 1513 1513 1512 1511 1510 1509 1508